{"data":{"norad_id":65101,"intl_designator":"2025-167Z","name":"STARLINK-34285","alt_names":[],"object_type":"PAYLOAD","status":"ACTIVE","operator":null,"country":"US","launch_date":"2025-08-04","launch_site_code":"AFETR","launch_vehicle":null,"mission":null,"orbit_class":"UNKNOWN","rcs_meters":null,"size_class":null,"mass_kg":null,"dimensions":null,"purposes":["comms"],"wikipedia_slug":null,"has_3d_model":false,"image_url":null,"decayed_at":null,"tle_current":{"epoch":"2026-09-20T07:34:06.975264Z","epoch_age_seconds":136862,"freshness":"FRESH","line1":"1 65101U 25167Z   26263.31535851  .00021730  00000+0  65210-3 0  9993","line2":"2 65101  53.1568 198.6891 0001245  88.4414 271.6731 15.34415035 63339","mean_motion":15.34415035,"eccentricity":0.0001245,"inclination_deg":53.1568,"raan_deg":198.6891,"arg_perigee_deg":88.4414,"mean_anomaly_deg":271.6731,"bstar":0.0006521,"rev_number":6333,"period_min":93.846838511981,"perigee_km":461.80687433712,"apogee_km":463.51023242991,"semimajor_km":6840.7955533835,"source":"CELESTRAK","updated_at":"2026-09-21T09:00:35.525914Z"}}}